College Park, MD

11:06 AM EST on December 15, 2017 (GMT -0500)
College Park

Weather History for KCGS - November, 2013

Change the Weather History Date:

Friday, November 15, 2013

  Actual Average Record
Temperature  
Mean Temperature 45 °F -  
Max Temperature 63 °F 58 °F 79 °F (1985)
Min Temperature 28 °F 38 °F 20 °F (1986)
Degree Days  
Heating Degree Days 20    
Moisture  
Dew Point 29 °F    
Average Humidity 63    
Maximum Humidity 96    
Minimum Humidity 24    
Precipitation  
Precipitation 0.00 in - - ()
Sea Level Pressure  
Sea Level Pressure 30.23 in    
Wind  
Wind Speed 0 mph (South)    
Max Wind Speed 5 mph    
Max Gust Speed -    
Visibility 10 miles    
Events      
Averages and records for this station are not official NWS values.
T = Trace of Precipitation, MM = Missing Value Source: NWS Daily Summary

Daily Weather History Graph

Daily Weather History Graph

Search for Another Location

Airport or City:

Trip Planner

Search our weather history database for the weather conditions in past years. The results will help you decide how hot, cold, wet, or windy it might be!

Date:

Astronomy

Nov. 15, 2013 Rise Set
Actual Time 6:50 AM EST 4:53 PM EST
Civil Twilight 6:22 AM EST 5:22 PM EST
Nautical Twilight 5:49 AM EST 5:54 PM EST
Astronomical Twilight 5:18 AM EST 6:25 PM EST
Moon 3:48 PM EST 4:46 AM EST
Length of Visible Light 10h 59m
Length of Day
10h 02m
Waxing Gibbous, 96% of the Moon is Illuminated
Nov 15
Waxing Gibbous
Nov 17
Full
Nov 25
Last Quarter
Dec 2
New
Dec 9
First Quarter

Hourly Weather History & Observations

Time (EST) Temp. Windchill Dew Point Humidity Pressure Visibility Wind Dir Wind Speed Gust Speed Precip Events Conditions
12:10 AM 32.0 °F - 27.7 °F 84% 30.23 in 10.0 mi Calm Calm - N/A   Clear
12:30 AM 31.6 °F - 27.3 °F 84% 30.23 in 10.0 mi Calm Calm - N/A   Clear
12:50 AM 31.1 °F - 27.7 °F 87% 30.22 in 10.0 mi Calm Calm - N/A   Clear
1:10 AM 31.1 °F - 28.4 °F 90% 30.22 in 10.0 mi Calm Calm - N/A   Clear
1:30 AM 31.1 °F - 27.3 °F 86% 30.22 in 10.0 mi Calm Calm - N/A   Clear
1:50 AM 30.9 °F - 27.5 °F 87% 30.23 in 10.0 mi Calm Calm - N/A   Clear
2:10 AM 30.0 °F - 27.5 °F 90% 30.22 in 10.0 mi Calm Calm - N/A   Clear
2:30 AM 30.2 °F - 27.5 °F 90% 30.23 in 10.0 mi Calm Calm - N/A   Clear
2:50 AM 30.2 °F - 27.5 °F 90% 30.24 in 10.0 mi Calm Calm - N/A   Clear
3:10 AM 29.8 °F - 27.9 °F 92% 30.22 in 10.0 mi Calm Calm - N/A   Clear
3:30 AM 30.0 °F - 28.2 °F 93% 30.22 in 10.0 mi Calm Calm - N/A   Clear
3:50 AM 29.3 °F - 27.5 °F 93% 30.23 in 10.0 mi Calm Calm - N/A   Clear
4:10 AM 29.1 °F - 27.5 °F 94% 30.23 in 10.0 mi Calm Calm - N/A   Clear
4:30 AM 28.9 °F - 27.5 °F 94% 30.23 in 10.0 mi Calm Calm - N/A   Clear
4:50 AM 28.8 °F - 27.3 °F 94% 30.23 in 10.0 mi Calm Calm - N/A   Clear
5:10 AM 29.1 °F - 27.5 °F 94% 30.23 in 10.0 mi Calm Calm - N/A   Clear
5:30 AM 29.1 °F - 27.5 °F 94% 30.24 in 10.0 mi Calm Calm - N/A   Clear
5:50 AM 29.1 °F - 27.3 °F 93% 30.25 in 10.0 mi Calm Calm - N/A   Clear
6:10 AM 28.8 °F - 27.5 °F 95% 30.25 in 10.0 mi Calm Calm - N/A   Clear
6:30 AM 28.8 °F - 27.5 °F 95% 30.26 in 10.0 mi Calm Calm - N/A   Clear
6:50 AM 28.4 °F - 27.3 °F 96% 30.26 in 10.0 mi Calm Calm - N/A   Clear
7:10 AM 28.9 °F - 27.5 °F 94% 30.28 in 10.0 mi Calm Calm - N/A   Clear
7:30 AM 29.3 °F - 28.0 °F 95% 30.28 in 10.0 mi Calm Calm - N/A   Clear
7:50 AM 30.0 °F - 28.8 °F 95% 30.27 in 10.0 mi Calm Calm - N/A   Clear
8:10 AM 32.0 °F - 30.2 °F 93% 30.28 in 10.0 mi Calm Calm - N/A   Clear
8:30 AM 34.3 °F - 31.5 °F 89% 30.28 in 10.0 mi Calm Calm - N/A   Clear
8:50 AM 38.3 °F - 32.2 °F 79% 30.28 in 10.0 mi Calm Calm - N/A   Clear
9:10 AM 39.7 °F - 31.1 °F 71% 30.28 in 10.0 mi Calm Calm - N/A   Clear
9:30 AM 41.9 °F - 31.1 °F 66% 30.29 in 10.0 mi Calm Calm - N/A   Clear
9:50 AM 44.2 °F 42.7 °F 31.1 °F 60% 30.28 in 10.0 mi South 3.5 mph - N/A   Clear
10:10 AM 45.7 °F - 30.7 °F 56% 30.28 in 10.0 mi Calm Calm - N/A   Clear
10:30 AM 46.8 °F - 29.3 °F 51% 30.28 in 10.0 mi Calm Calm - N/A   Clear
10:50 AM 48.2 °F - 28.4 °F 46% 30.28 in 10.0 mi SW 3.5 mph - N/A   Clear
11:10 AM 50.7 °F - 27.3 °F 40% 30.27 in 10.0 mi Calm Calm - N/A   Clear
11:30 AM 52.9 °F - 26.6 °F 36% 30.26 in 10.0 mi Calm Calm - N/A   Clear
11:50 AM 54.5 °F - 26.6 °F 34% 30.25 in 10.0 mi Calm Calm - N/A   Clear
12:10 PM 55.6 °F - 26.4 °F 33% 30.23 in 10.0 mi Calm Calm - N/A   Clear
12:30 PM 57.2 °F - 26.2 °F 31% 30.22 in 10.0 mi Calm Calm - N/A   Clear
12:50 PM 58.1 °F - 25.0 °F 28% 30.22 in 10.0 mi Calm Calm - N/A   Clear
1:10 PM 58.3 °F - 25.3 °F 28% 30.21 in 10.0 mi Calm Calm - N/A   Clear
1:30 PM 59.5 °F - 27.0 °F 29% 30.20 in 10.0 mi Calm Calm - N/A   Clear
1:45 PM 60.4 °F - 23.5 °F 24% 30.20 in 10.0 mi South 3.5 mph - N/A   Clear
2:10 PM 60.8 °F - 24.6 °F 25% 30.20 in 10.0 mi Calm Calm - N/A   Clear
2:30 PM 61.5 °F - 25.7 °F 26% 30.19 in 10.0 mi Calm Calm - N/A   Clear
2:50 PM 61.9 °F - 24.6 °F 24% 30.19 in 10.0 mi Calm Calm - N/A   Clear
3:10 PM 62.6 °F - 25.3 °F 24% 30.19 in 10.0 mi Calm Calm - N/A   Clear
3:30 PM 62.1 °F - 26.1 °F 25% 30.19 in 10.0 mi SW 3.5 mph - N/A   Clear
3:50 PM 61.9 °F - 25.0 °F 25% 30.19 in 10.0 mi Calm Calm - N/A   Clear
4:05 PM 60.8 °F - 25.9 °F 26% 30.20 in 10.0 mi SW 4.6 mph - N/A   Clear
4:30 PM 59.5 °F - 24.1 °F 26% 30.20 in 10.0 mi SSE 3.5 mph - N/A   Clear
4:50 PM 58.5 °F - 23.2 °F 26% 30.20 in 10.0 mi Calm Calm - N/A   Clear
5:10 PM 57.4 °F - 24.4 °F 28% 30.20 in 10.0 mi SSE 4.6 mph - N/A   Clear
5:30 PM 56.3 °F - 25.5 °F 31% 30.21 in 10.0 mi SSE 3.5 mph - N/A   Clear
5:50 PM 55.4 °F - 25.5 °F 32% 30.21 in 10.0 mi Calm Calm - N/A   Clear
6:05 PM 54.0 °F - 26.2 °F 34% 30.21 in 10.0 mi Calm Calm - N/A   Clear
6:30 PM 53.1 °F - 26.8 °F 36% 30.21 in 10.0 mi Calm Calm - N/A   Clear
6:50 PM 53.8 °F - 26.4 °F 35% 30.21 in 10.0 mi Calm Calm - N/A   Clear
7:10 PM 49.8 °F - 31.1 °F 49% 30.21 in 10.0 mi Calm Calm - N/A   Clear
7:30 PM 48.9 °F - 30.7 °F 50% 30.22 in 10.0 mi Calm Calm - N/A   Clear
7:50 PM 47.8 °F - 34.3 °F 60% 30.22 in 10.0 mi Calm Calm - N/A   Clear
8:10 PM 47.5 °F - 36.1 °F 65% 30.22 in 10.0 mi Calm Calm - N/A   Clear
8:30 PM 48.2 °F - 32.2 °F 54% 30.23 in 10.0 mi Calm Calm - N/A   Scattered Clouds
8:50 PM 48.2 °F - 33.3 °F 56% 30.23 in 10.0 mi Calm Calm - N/A   Mostly Cloudy
9:10 PM 47.5 °F - 35.2 °F 63% 30.23 in 10.0 mi Calm Calm - N/A   Overcast
9:30 PM 48.2 °F - 35.4 °F 61% 30.23 in 10.0 mi Calm Calm - N/A   Overcast
9:50 PM 48.6 °F - 35.2 °F 60% 30.24 in 10.0 mi Calm Calm - N/A   Overcast
10:10 PM 48.0 °F - 37.0 °F 66% 30.24 in 10.0 mi Calm Calm - N/A   Overcast
10:30 PM 47.5 °F - 37.8 °F 69% 30.25 in 10.0 mi Calm Calm - N/A   Overcast
10:50 PM 46.8 °F - 38.8 °F 74% 30.25 in 10.0 mi Calm Calm - N/A   Overcast
11:10 PM 46.0 °F - 41.2 °F 83% 30.25 in 10.0 mi Calm Calm - N/A   Overcast
11:30 PM 45.1 °F - 42.6 °F 91% 30.27 in 7.0 mi Calm Calm - N/A   Overcast
11:50 PM 46.2 °F - 44.1 °F 92% 30.27 in 7.0 mi Calm Calm - N/A   Overcast